Regional Weather Roundup
Issued by NWS Charleston, WV

Home | Current Version | Previous Version | Text Only | Print | Product List | Glossary Off
Versions: 1 2 3 4 5 6 7 8 9 10 11 12 13 14 15 16 17 18 19 20 21 22 23 24 25 26 27 28 29 30 31 32 33 34 35 36 37 38 39 40 41 42 43 44 45 46 47 48 49 50

000
ASUS41 KRLX 282310
RWRRLX
West Virginia Regional Weather Roundup
National Weather Service Charleston WV
600 PM EST SUN DEC 28 2014

Note: "fair" indicates few or no clouds below 12,000 feet with no
significant weather and/or obstructions to visibility.

WVZ003-290000-
Northern Panhandle of West Virginia

CITY           SKY/WX    TMP DP  RH WIND       PRES   REMARKS
WHEELING       CLOUDY    36  30  79 W5        30.09R
$$

WVZ009-290000-
Northwest West Virginia

CITY           SKY/WX    TMP DP  RH WIND       PRES   REMARKS
PARKERSBURG    CLOUDY    37  34  89 NW3       30.15R
$$

WVZ006-290000-
Western West Virginia

CITY           SKY/WX    TMP DP  RH WIND       PRES   REMARKS
HUNTINGTON     LGT RAIN  37  37 100 N7        30.13R FOG
$$

WVZ015-290000-
West Central West Virginia

CITY           SKY/WX    TMP DP  RH WIND       PRES   REMARKS
CHARLESTON     LGT RAIN  40  38  93 NW8       30.11R FOG
$$

WVZ022-031-290000-
North Central West Virginia

CITY           SKY/WX    TMP DP  RH WIND       PRES   REMARKS
CLARKSBURG     CLOUDY    39  38  96 N8        30.07R
MORGANTOWN     DRIZZLE   36  33  89 N9        30.09R FOG
$$

WVZ025-035-042-045-290000-
Southern West Virginia

CITY           SKY/WX    TMP DP  RH WIND       PRES   REMARKS
BECKLEY        CLOUDY    45  42  89 W5        30.03R
LOGAN          MIX PCPN  41  41 100 CALM      30.07R
BLUEFIELD      CLOUDY    46  43  89 SW7       30.04S
LEWISBURG      CLOUDY    48  44  88 W3        30.03R
$$

WVZ047-290000-
Northern Mountains of West Virginia

CITY           SKY/WX    TMP DP  RH WIND       PRES   REMARKS
ELKINS         CLOUDY    41  41 100 CALM      30.05R
$$

WVZ052-290000-
Eastern Panhandle of West Virginia

CITY           SKY/WX    TMP DP  RH WIND       PRES   REMARKS
MARTINSBURG    CLOUDY    50  37  61 NW7       30.01F
PETERSBURG     CLOUDY    51  39  63 N6        30.02R
$$


USA.gov is the U.S. government's official web portal to all federal, state and local government web resources and services.